Время (UTC), дата Ветер
(°,м/с) 
Видим.   Явления Облачность Т
(°С)
Тd
(°С)
f(%) Тe
(°С)
Pmin
(гПа)
dP
(гПа)
Po
(мм)
O2
(г/м3)
Тmin Tmax R s Состояние
почвы
00 01.02.13 190 (Ю) 4000 м  дымка  10/8 600 м средняя, верхняя 
[Sc|Ac trans|Ci fib]
+1.9 +1 94 +3  1009.9  -0.6  755  302           
06 01.02.13 180 (Ю) 10 км    10/10 1000 м 
[Sc]
+4.1 +0.4 77 +4  1009.8  0.6  755  299           
09 01.02.13 210 (ЮЗ) 10 км    10/3 1000 м средняя, верхняя 
[Sc|Ac As|Ci]
+7.6 +0.2 59 +6  1008.8  -0.9  754  295           
12 01.02.13 220 (ЮЗ) 10 км  слаб. дождь  10/9 1000 м средняя 
[Sc|Ac und]
+7.2 +1.3 66 +7  1008.8  754  296           
15 01.02.13 210 (ЮЗ) 4000 м  слаб. дождь  10/10 300 м 
[Frnb|Ns]
+5 +3.3 89 +5  1009.7  0.8  755  298    +8.2     
18 01.02.13 210 (ЮЗ) 4000 м  слаб. дождь  10/10 300 м 
[Frnb|Ns]
+4 +2.9 92 +5  1010.1  0.4  755  299           
21 01.02.13 тихо ()   10 км  {дождь}  10/3 300 м средняя 
[St|Ac und]
+3.5 +2.4 92 +4  1010.5  0.3  755  300           
00 02.02.13 170 (Ю) 10 км  {дождь}  8/0 верхняя 
[Cs]
+2.4 +1.4 93 +3  1010.5  755  301           
03 02.02.13 160 (Ю) 10 км    10/0 средняя, верхняя 
[Ac trans|Cs]
+2.8 +1.3 90 +4  1010.2  -0.3  755  301  +2.2       
06 02.02.13 200 (Ю) 10 км  {ливн. осадки}  10/5 600 м кучево-дожд., средняя, верхняя 
[Cb cap|Ac trans|Cc]
+3.5 +2.2 91 +3  1012.1  1.9  756  301           
09 02.02.13 220 (ЮЗ) 10 км    10/8 600 м кучево-дожд., средняя, верхняя 
[Cb cap|Ac trans|Cc]
+8 +3.3 72 +7  1012.9  0.8  757  296           
15 02.02.13 210 (ЮЗ) 10 км  {ливн. осадки}  8/4 1000 м кучево-дожд., средняя 
[Cb cap|Ac trans]
+6.5 +3.2 79 +6  1016.2  1.5  759  298    +8     
18 02.02.13 150 (ЮВ) 10 км  {ливн. осадки}  ясно 
+4.7 +2.6 86 +6  1017.6  1.3  760  301           
21 02.02.13 150 (ЮВ) 10 км    ясно 
+4.6 +1.1 78 +5  1018.1  0.4  761  301           
00 03.02.13 110 (В) 10 км    ясно 
+5.4 -0.1 68 +6  1017.7  -0.3  761  300           
03 03.02.13 090 (В) 10 км    8/8 1000 м 
[Sc]
+5.5 +0.3 69 +6  1017.2  -0.5  760  300  +3.9         
06 03.02.13 110 (В) 10 км    10/3 1000 м средняя, верхняя 
[Sc|Ac trans|Cc]
+6.1 -1.4 59 +7  1017.6  0.3  760  300           
09 03.02.13 180 (Ю) 10 км    8/3 1000 м верхняя 
[Sc|Ci fib]
+13.8 -5 27 +14  1015.7  -1.8  759  292           
12 03.02.13 210 (ЮЗ) 5{12}  10 км    10/4 1000 м средняя, верхняя 
[Sc|Ac trans|Ci fib]
+14.6 -7.3 21 +14  1015.5  -0.2  759  291           
15 03.02.13 190 (Ю) 2{12}  10 км    10/10 1000 м кучево-дожд. 
[Cb cap]
+13.1 -6 26 +14  1015.6  759  292    +15.4       
18 03.02.13 180 (Ю) 10 км    10/0 верхняя 
[Ci fib]
+12.4 -5.3 29 +12  1015  -0.6  758  293           
21 03.02.13 180 (Ю) 10 км    6/6 1000 м 
[Sc]
+11.8 -4.2 32 +13  1015.5  0.5  759  294           
00 04.02.13 150 (ЮВ) 10 км    10/0 средняя 
[Ac und]
+11.5 -2.8 37 +13  1014.6  -0.9  758  293           
03 04.02.13 190 (Ю) 10 км    10/0 верхняя 
[Ci fib]
+15.1 -2.8 29 +15  1013.3  -0.9  757  289  +10.7         
06 04.02.13 240 (ЮЗ) 10 км    10/10 1000 м 
[Sc]
+14.9 -4.3 26 +15  1015.3  759  290           
09 04.02.13 200 (Ю) 7-14{15}  10 км    10/3 1000 м средняя, верхняя 
[Sc|Ac trans|Cc]
+16.1 +1.4 37 +16  1015.7  0.4  759  289           
12 04.02.13 220 (ЮЗ) 5-12{14}  10 км    10/3 1000 м средняя, верхняя 
[Sc|Ac trans|Ci]
+16.5 +4.2 44 +16  1015.3  -0.4  759  288           
18 04.02.13 340 (С) 10 км    8/0 средняя, верхняя 
[Ac trans|Ci]
+8.2 +4.5 78 +8  1017.2  0.5  760  297           
21 04.02.13 тихо ()   10 км    10/0 средняя, верхняя 
[Ac trans|Ci]
+6.2 +2.9 79 +6  1015.9  -1.3  759  299           
00 05.02.13 тихо ()   10 км    10/10 1000 м 
+5.8 +2.4 79 +6  1015.9  -0.1  759  299           
03 05.02.13 340 (С) 10 км    10/10 600 м 
[Sc]
+5.1 +1.9 80 +6  1015  -0.9  758  300  +5.1         
06 05.02.13 180 (Ю) 4000 м  слаб. ливневой дождь  10/10 600 м кучево-дожд. 
[Cb cap]
+4.6 +3.5 93 +5  1015.9  0.8  759  300           
09 05.02.13 150 (ЮВ) 10 км  {ливн. осадки}  8/8 600 м кучево-дожд. 
[Cb cap]
+7 +4.6 85 +7  1015.5  -0.3  759  297           
12 05.02.13 270 (З) 4{10}  10 км  {ливн. осадки}  5/5 600 м кучево-дожд. 
[Cb cap]
+8.5 +2.3 65 +7  1017.3  1.8  760  297           
15 05.02.13 310 (СЗ) 2{11}  10 км    3/3 1000 м 
[Sc diur, vesp]
+5.1 +1.7 79 +5  1019.9  2.6  762  301    +9.1     
18 05.02.13 320 (СЗ) 10 км    3/3 300 м 
[St]
+2.7 +0.9 88 +3  1021.9  1.9  764  305           
21 05.02.13 тихо ()   10 км    3/3 300 м 
[St]
+1.6 +0.4 92 +2  1021.7  -0.3  763  306           
00 06.02.13 100 (В) 10 км    10/10 300 м 
[St]
+3 +1.3 89 +2  1020.4  -1.3  762  304           
03 06.02.13 060 (СВ) 10 км    ясно 
+2 +0.7 91 +3  1018.4  -1.9  761  304  +1.4         
06 06.02.13 070 (В) 10 км    8/0 верхняя 
[Ci fib]
+3 +0.4 83 +4  1017.4  -1.9  760  303           
09 06.02.13 080 (В) 10 км    10/0 средняя, верхняя 
[Ac trans|Ci fib]
+6.6 +1.8 71 +6  1015.3  -2  759  298           
12 06.02.13 070 (В) 10 км    10/0 средняя, верхняя 
[Ac trans|Ci fib]
+11.1 +4.4 63 +11  1012.4  -2.9  757  292           
15 06.02.13 080 (В) 10 км    10/3 1500 м средняя, верхняя 
[Sc|Ac trans|Ci fib]
+9.1 +4.3 72 +9  1011.6  -0.8  756  294    +11.2       
18 06.02.13 090 (В) 10 км    8/3 1500 м средняя 
[Sc|Ac trans]
+7.3 +3.6 77 +7  1011.6  756  296           
21 06.02.13 080 (В) 10 км    8/0 верхняя 
[Ci fib]
+5.8 +2.7 80 +6  1011.2  -0.4  756  298           
00 07.02.13 070 (В) 10 км    10/0 средняя, верхняя 
[Ac trans|Ci fib]
+4.4 +2.1 85 +4  1011.3  0.1  756  299           
06 07.02.13 070 (В) 10 км    9/5 1000 м средняя, верхняя 
[Sc|Ac trans|Cc]
+4.7 +2.2 84 +6  1012.9  1.3  757  299           
09 07.02.13 100 (В) 10 км    9/6 1000 м средняя, верхняя 
[Sc|Ac trans|Cc]
+10.5 +4.8 68 +11  1013  0.3  757  293           
12 07.02.13 070 (В) 10 км    6/0 средняя 
[Ac trans]
+17.6 +5.1 44 +19  1013.3  0.2  757  286           
15 07.02.13 070 (В) 10 км    3/0 средняя 
[Ac lent]
+12.6 +6.5 66 +14  1015.1  1.8  759  291    +18.8       
18 07.02.13 080 (В) 10 км    3/0 средняя 
[Ac trans]
+9.9 +5.2 73 +11  1016  0.8  759  294           
21 07.02.13 060 (СВ) 10 км    ясно 
+6.5 +3.9 83 +7  1016  0.1  759  298           
00 08.02.13 060 (СВ) 10 км    ясно 
+4.9 +2.2 83 +6  1015.9  0.1  759  300           
03 08.02.13 060 (СВ) 10 км    ясно 
+3.9 +0.8 80 +5  1016  0.1  759  301  +3.9         
06 08.02.13 070 (В) 10 км    3/3 1000 м 
[Sc]
+5.3 +0.8 73 +5  1016.6  0.6  760  300  +3.6         
09 08.02.13 080 (В) 10 км    ясно 
+13.2 +3.2 51 +14  1015.8  -0.7  759  291           
12 08.02.13 060 (СВ) 10 км    8/0 верхняя 
[Ci]
+16 +5.4 49 +16  1014.8  -1  758  288           
15 08.02.13 070 (В) 10 км    5/0 средняя, верхняя 
[Ac trans|Ci fib]
+11.9 +5.8 66 +13  1015.1  0.3  759  292    +16.9       
18 08.02.13 070 (В) 10 км    4/0 средняя, верхняя 
[Ac trans|Ci fib]
+8.3 +4.3 76 +8  1014.5  -0.6  758  296           
21 08.02.13 080 (В) 10 км    ясно 
+5.6 +1 72 +5  1013.7  -0.8  758  299           
00 09.02.13 080 (В) 10 км    ясно 
+2.9 -0.7 77 +4  1013.6  -0.1  757  302           
03 09.02.13 090 (В) 10 км    ясно 
+2.2 -0.8 81 +2  1014.4  0.8  758  303  +2         
06 09.02.13 090 (В) 10 км    ясно 
+2.9 -0.3 80 +2  1015.3  0.8  759  302  +1.8         
09 09.02.13 090 (В) 10 км    3/1 1000 м средняя 
[Sc|Ac trans]
+9.5 +1.3 57 +10  1015.1  -0.1  759  295           
12 09.02.13 150 (ЮВ) 10 км    6/3 1000 м средняя 
[Sc|Ac trans]
+13.7 +3.1 49 +15  1015  759  291           
15 09.02.13 210 (ЮЗ) 10 км    6/3 1000 м средняя 
[Cu Sc|Ac trans]
+14.2 +2.9 46 +15  1016.7  1.6  760  291    +17.3       
18 09.02.13 260 (З) 10 км    9/0 средняя 
[Ac trans]
+11.4 +4.7 63 +13  1018.6  1.9  761  294           
06 10.02.13 110 (В) 10 км  {ливн. осадки}  3/0 средняя 
[Ac cast]
+10.4 +4.1 65 +11  1019  -0.6  761  295  +8.1         
09 10.02.13 100 (В) 10 км    8/1 1000 м средняя 
[Sc|Ac cast]
+13.9 +3 48 +14  1017.8  -1.2  761  291           
12 10.02.13 080 (В) 10 км    9/4 1000 м средняя, верхняя 
[Sc|Ac cast|Cc]
+15.7 +5 49 +16  1016.3  -1.5  760  289           
15 10.02.13 060 (СВ) 10 км    8/5 1000 м средняя 
[Sc|Ac trans]
+12.8 +5.6 62 +13  1015.7  -0.5  759  291    +16.7       
18 10.02.13 060 (СВ) 10 км    4/0 средняя 
[Ac trans]
+8.4 +4.2 75 +9  1015.2  -0.6  759  296           
21 10.02.13 070 (В) 10 км    9/3 1500 м средняя 
[Sc|Ac trans]
+6.6 +3.1 78 +6  1014.5  -0.7  758  298           
00 11.02.13 070 (В) 10 км    9/5 1000 м средняя 
[Sc|Ac trans]
+4.9 +1.4 78 +4  1013.9  -0.6  758  300           
03 11.02.13 070 (В) 10 км    9/9 1000 м 
[Sc]
+3.5 +0.7 82 +3  1013  -0.9  757  301  +3.5         
06 11.02.13 080 (В) 10 км    10/6 1000 м кучево-дожд., средняя, верхняя 
[Cb cap|Ac trans|Ci fib]
+3.7 +0.6 80 +2  1013.2  0.1  757  301  +3.4         
09 11.02.13 060 (СВ) 10 км    10/3 1000 м средняя, верхняя 
[Sc|Ac trans|Ci fib]
+7.8 +2.4 69 +7  1011.6  -1.5  756  296           
12 11.02.13 070 (В) 10 км    8/0 средняя, верхняя 
[Ac trans|Ci]
+10.7 +3.9 63 +10  1009.9  -1.7  755  292           
15 11.02.13 060 (СВ) 10 км    10/3 1000 м средняя, верхняя 
[Sc|Ac trans|Ci fib]
+8.9 +4.2 72 +9  1009.8  -0.2  755  294    +11.4       
18 11.02.13 060 (СВ) 10 км    6/0 средняя, верхняя 
[Ac trans|Ci fib]
+5.5 +2.7 82 +5  1009.9  0.1  755  298           
21 11.02.13 060 (СВ) 10 км    10/0 средняя, верхняя 
[Ac trans|Ci fib]
+3.5 +1.6 87 +4  1009.7  -0.3  754  300           
00 12.02.13 тихо ()   10 км    10/8 1000 м средняя 
[Sc|Ac und]
+3.6 +1.5 86 +4  1010.7  1.1  755  300           
03 12.02.13 тихо ()   10 км    10/8 1000 м кучево-дожд., средняя 
[Cb cap|Ac und]
+3.3 +1.3 87 +3  1012.5  1.7  757  301  +2.9         
06 12.02.13 050 (СВ) 4000 м  слаб. дождь  10/10 600 м 
[Frnb|Ns]
+4.1 +2.6 90 +5  1014.4  1.9  758  301           
09 12.02.13 300 (СЗ) 4000 м  слаб. дождь  10/10 600 м 
[Frnb|Ns]
+7.1 +4.9 86 +8  1016.4  2.1  760  298           
12 12.02.13 340 (С) 4000 м  слаб. дождь  10/10 600 м 
[Ns]
+7.6 +5.6 87 +9  1018.1  1.6  761  297           
18 12.02.13 270 (З) 4000 м  слаб. дождь  10/10 300 м 
[Frnb|Ns]
+5.5 +4.5 93 +5  1022.5  1.8  764  301           
21 12.02.13 290 (З) 10 км  {дождь}  9/3 1000 м средняя 
[Sc|Ac trans]
+4.4 +2.9 90 +5  1023.8  1.2  765  303           
00 13.02.13 290 (З) 10 км  {дождь}  10/10 1000 м 
[Sc]
+4.1 +2.7 91 +5  1025  1.2  766  304           
03 13.02.13 тихо ()   10 км    10/10 1000 м 
[Sc]
+3.8 +2.4 91 +4  1025.8  0.8  767  304  +3.8       
06 13.02.13 080 (В) 4000 м  дымка  10/10 300 м 
[St]
+3.9 +2.7 92 +5  1026.9  767  304           
09 13.02.13 160 (Ю) 4000 м  дымка  10/10 600 м 
[St]
+6 +3.7 85 +7  1027  0.2  767  302           
12 13.02.13 070 (В) 10 км    9/3 1500 м средняя 
[Sc diur, vesp|Ac trans]
+9.5 +2.9 63 +11  1026.3  -0.7  767  298           
15 13.02.13 050 (СВ) 10 км    4/3 1500 м средняя 
[Sc|Ac trans]
+7 +2.2 71 +8  1026.7  0.3  767  301    +9.9       
18 13.02.13 070 (В) 10 км    9/9 1000 м 
[Sc]
+6.5 +2.6 76 +7  1026.8  0.1  767  302           
21 13.02.13 тихо ()   10 км    3/3 1500 м 
[Sc]
+4.8 +1.7 80 +5  1026.6  -0.2  767  304           
00 14.02.13 тихо ()   10 км    ясно 
+2.2 +0.7 90 +2  1026.4  -0.3  767  306           
03 14.02.13 060 (СВ) 10 км    ясно 
+2.5 +0.9 89 +3  1025.5  -0.9  766  306  +1.9         
06 14.02.13 070 (В) 10 км    10/0 верхняя 
[Ci fib]
+3.5 +1.1 84 +4  1025.3  -0.2  766  305           
09 14.02.13 060 (СВ) 10 км    10/0 верхняя 
[Ci fib]
+10 +3.6 64 +10  1023.3  -1.9  765  297           
12 14.02.13 070 (В) 10 км    10/0 средняя, верхняя 
[Ac trans|Ci fib]
+12.3 +4 57 +12  1020.8  -2.5  763  294           
15 14.02.13 050 (СВ) 10 км    10/3 1000 м средняя, верхняя 
[Sc|Ac trans|Cs]
+10.9 +4.7 66 +11  1018.7  -2  761  294    +12.8       
18 14.02.13 060 (СВ) 10 км    10/3 1000 м средняя, верхняя 
[Sc|Ac trans|Cs]
+7.9 +2.9 71 +8  1017.1  -1.7  760  297           
21 14.02.13 060 (СВ) 10 км    10/0 верхняя 
[Ci fib]
+4.5 +1.4 80 +4  1015.6  -1.5  759  301           
00 15.02.13 060 (СВ) 10 км    10/3 1000 м средняя, верхняя 
[Sc|Ac trans|Ci fib]
+2.7 +0.6 86 +2  1013.9  -1.7  758  302           
03 15.02.13 070 (В) 10 км    10/3 1000 м средняя, верхняя 
[Sc diur, vesp|Ac trans|Ci fib]
+2.3 +0.3 87 +3  1012.8  -1.1  757  302  +2.3         
06 15.02.13 080 (В) 10 км    10/3 1000 м средняя 
[Sc|Ac und]
+3.2 +0.5 82 +2  1012.2  -0.6  756  301  +2.2         
09 15.02.13 070 (В) 10 км    10/1 1000 м средняя, верхняя 
[Cu hum|Ac trans|Cc]
+7.7 +1.6 65 +7  1011  -1.1  755  296           
12 15.02.13 080 (В) 10 км    8/0 средняя, верхняя 
[Ac trans|Ci]
+11.3 +2.6 55 +11  1008.9  -2  754  291           
15 15.02.13 060 (СВ) 10 км    10/6 1000 м средняя, верхняя 
[Sc|Ac trans|Ci]
+8.1 +2.4 67 +8  1008.9  754  295    +11.6       
18 15.02.13 060 (СВ) 10 км    10/0 средняя, верхняя 
[Ac trans|Ci]
+4.3 +1.2 80 +4  1009.1  0.1  754  299           
21 15.02.13 040 (СВ) 10 км    10/0 верхняя 
[Ci]
+3.1 +0.5 83 +4  1009  -0.2  754  300           
00 16.02.13 030 (СВ) 10 км    10/4 1000 м верхняя 
[Sc|Ci]
+2.3 +0.2 86 +3  1009.7  0.8  755  301           
03 16.02.13 020 (С) 10 км    10/10 600 м 
[Sc]
+3 +0.8 85 +4  1010.8  755  301           
06 16.02.13 040 (СВ) 4000 м  слаб. дождь  10/10 600 м 
[Sc]
+3.3 +1.7 89 +4  1011.2  0.4  756  301           
09 16.02.13 050 (СВ) 4000 м  слаб. дождь  10/10 600 м 
[Ns]
+4.1 +2.7 91 +5  1012.2  0.9  756  300           
12 16.02.13 340 (С) 4000 м  слаб. дождь  10/10 600 м 
[Ns]
+4.2 +2.8 91 +5  1012.1  756  300           
18 16.02.13 310 (СЗ) 4000 м  слаб. ливневой дождь  10/10 600 м кучево-дожд. 
[Cb cap]
+1.8 +1.8 100 +3  1013.6  1.9  759  303           
21 16.02.13 270 (З) 4000 м  слаб. дождь{ливн. осадки}  10/10 600 м 
[Ns]
+0.9 +0.1 94 +2  1016.5  760  305           
00 17.02.13 270 (З) 4000 м  слаб. дождь{ливн. осадки}  10/10 300 м 
[Ns]
+1.3 +0.4 94 +1  1017  0.5  760  305           
03 17.02.13 280 (З) 10 км  {дождь}  10/10 600 м 
[Ns]
+1.5 +0.6 94 +1  1017.4  0.4  760  305  +0.8       
06 17.02.13 270 (З) 4000 м  слаб. морось{дождь}  10/10 200 м 
[St]
+2.2 +0.9 91 +3  1018  0.6  761  304           
09 17.02.13 280 (З) 10 км  {морось}  10/10 300 м 
[St]
+3.7 +0.4 79 +3  1018.1  761  302           
12 17.02.13 310 (СЗ) 10 км  {морось}  10/10 300 м 
[St]
+4.4 +0.8 77 +4  1017.5  -0.6  760  301           
15 17.02.13 320 (СЗ) 10 км    10/10 300 м 
[St]
+3.4 +0.9 84 +4  1017.9  0.4  761  303    +4.4  0.4     
18 17.02.13 300 (СЗ) 4000 м  слаб. морось  10/10 300 м 
[St]
+3 +0.2 82 +4  1018.6  0.7  761  303           
21 17.02.13 310 (СЗ) 10 км  в посл. час морось  10/10 300 м 
[St]
+2.1 -0.5 83 +3  1018.9  0.2  761  304           
00 18.02.13 290 (З) 10 км  {морось}  10/10 300 м 
[St]
+2 -0.8 82 +3  1018.6  -0.3  761  305           
03 18.02.13 330 (СЗ) 10 км    10/10 300 м 
[St]
+1.2 -2.2 78 +2  1018.8  0.2  761  306  +1.2    0.0     
06 18.02.13 020 (С) 10 км  слаб. снег  10/10 300 м 
[St]
+1.4 -1.6 80 +2  1019.3  0.5  762  306  +1         
09 18.02.13 030 (СВ) 10 км  слаб. снег  10/8 600 м средняя 
[Sc|Ac und]
+2.8 -1.7 72 +4  1019.1  -0.2  761  304           
12 18.02.13 360 (С) 10 км  {снег}  9/9 600 м 
[Sc]
+4.1 -0.6 72 +5  1018.3  -0.8  761  302           
15 18.02.13 330 (СЗ) 4000 м    10/10 300 м 
[St]
+3.6 -0.7 73 +4  1018.5  0.2  761  303    +4.3  0.0     
18 18.02.13 030 (СВ) 4000 м  дымка{дождь}  10/10 300 м 
[St]
+2.8 -0.8 77 +4  1019.3  0.7  762  304           
21 18.02.13 030 (СВ) 4000 м  дымка  10/10 600 м 
[Sc]
+2.2 -1.4 77 +3  1019.3  762  305           
00 19.02.13 010 (С) 4000 м  слаб. снег  10/10 600 м 
[Ns]
+0.3 -1.8 86 +1  1019.8  0.5  762  307           
03 19.02.13 030 (СВ) 4000 м  слаб. снег  10/10 300 м 
[Ns]
+0 -1.9 87 +1  1020.1  0.2  762  307  -0.1    0.1     
06 19.02.13 040 (СВ) 4000 м  слаб. снег  10/10 600 м 
[Ns]
+0 -1.9 87 +1  1021.1  1.1  763  308           
09 19.02.13 060 (СВ) 4000 м  слаб. снег  10/10 300 м 
[Ns]
+1.8 -0.5 85 +3  1021.1  763  305           
12 19.02.13 тихо ()   4000 м  слаб. дождь{снег}  10/10 300 м 
[Ns]
+3.5 +0.5 81 +4  1019.9  -1.1  762  303           
15 19.02.13 040 (СВ) 4000 м  дымка{дождь}  10/10 300 м 
[St]
+3.6 +0.7 81 +4  1020  762  303    +4.2  0.3     
18 19.02.13 030 (СВ) 4000 м  дымка{дождь}  10/4 1000 м средняя 
[Sc|Ac und]
+3 +0.8 85 +4  1020.3  0.3  762  304           
21 19.02.13 тихо ()   4000 м  дымка  9/9 300 м 
[St]
+2.1 +0.9 92 +2  1020  -0.3  762  305           
00 20.02.13 100 (В) 4000 м    10/10 600 м 
[Sc]
+2.2 +1.2 93 +3  1019.5  -0.5  762  304           
03 20.02.13 090 (В) 4000 м  дымка  10/10 600 м 
[Sc]
+2.1 +1 93 +3  1018.8  -0.7  761  304           
06 20.02.13 060 (СВ) 4000 м  дымка  10/0 средняя, верхняя 
[Ac trans|Ci fib]
+2.9 +1.2 89 +4  1018.7  -0.1  761  303  +1.7         
09 20.02.13 090 (В) 10 км    10/0 средняя, верхняя 
[Ac trans|Ci]
+7.1 +1.3 67 +8  1017  -1.6  760  298           
12 20.02.13 070 (В) 10 км    10/0 средняя, верхняя 
[Ac trans|Cs]
+8.9 +0.8 57 +9  1015.8  -1.2  759  296           
15 20.02.13 090 (В) 10 км    10/0 средняя 
[Ac und]
+7.8 +0.7 61 +8  1015.7  0.1  759  297    +9.4       
18 20.02.13 050 (СВ) 10 км    10/0 средняя 
[Ac und]
+6.2 +0.6 67 +5  1015.5  0.1  759  299           
21 20.02.13 060 (СВ) 10 км    10/3 1000 м средняя 
[Sc|Ac und]
+4.8 +0.6 74 +6  1017.2  1.6  760  301           
00 21.02.13 100 (В) 10 км    10/8 600 м средняя 
[Sc|Ac und]
+4.3 +0.8 78 +5  1018.3  1.1  761  302           
03 21.02.13 тихо ()   10 км    10/0 верхняя 
[Ci fib]
+2.5 +0.6 87 +3  1019.8  1.4  762  304  +2.5         
06 21.02.13 тихо ()   10 км    3/0 средняя 
[Ac trans]
+4.7 +1.6 80 +5  1021.4  1.6  763  302  +1.6         
09 21.02.13 280 (З) 10 км    4/3 1000 м верхняя 
[Cu hum|Cc]
+9.3 +1.5 58 +10  1022.1  0.8  764  297           
12 21.02.13 250 (З) 10 км    10/3 1000 м средняя, верхняя 
[Sc diur, vesp|Ac trans|Ci fib]
+11.3 -1.7 40 +12  1021.2  -0.9  763  296           
15 21.02.13 тихо ()   10 км    10/6 1000 м средняя, верхняя 
[Sc|Ac trans|Ci fib]
+9.3 +0.2 53 +9  1021.7  0.4  764  297    +11.7       
18 21.02.13 270 (З) 10 км    9/5 600 м средняя 
[Sc|Ac trans]
+8.2 +1.1 61 +9  1022.6  0.9  764  299           
21 21.02.13 тихо ()   10 км    10/5 600 м средняя, верхняя 
[Sc|Ac trans|Ci fib]
+5.2 +2.5 83 +5  1022.5  -0.2  764  302           
00 22.02.13 тихо ()   10 км    10/5 1000 м средняя 
[Sc|Ac und]
+4.2 +2.6 89 +4  1022  -0.5  764  303           
03 22.02.13 тихо ()   10 км    10/3 1000 м средняя 
[Sc|Ac und]
+3.5 +2 90 +4  1022.2  0.2  764  304  +3.3         
06 22.02.13 050 (СВ) 4000 м  дымка  10/6 300 м средняя, верхняя 
[St|Ac trans|Ci]
+3.9 +2.6 91 +5  1022  -0.3  764  303  +2.8         
09 22.02.13 060 (СВ) 10 км    10/0 средняя, верхняя 
[As trans|Cs]
+8.8 +2.3 64 +9  1020.9  -1.1  763  297           
12 22.02.13 050 (СВ) 10 км    10/0 средняя 
[As trans]
+8.6 +2.6 66 +8  1017.9  -2.9  761  297           
15 22.02.13 060 (СВ) 10 км    10/10 600 м 
[Sc]
+5.9 +1.7 74 +5  1017.8  -0.2  761  300    +9.3       
18 22.02.13 060 (СВ) 3{11}  10 км    10/0 средняя 
[As op]
+5.1 +1.4 77 +4  1017.4  -0.4  760  301           
21 22.02.13 060 (СВ) 10 км    10/0 средняя 
[As op]
+4.9 +1.2 77 +3  1016.9  -0.5  760  301           
00 23.02.13 070 (В) 10 км    10/10 300 м 
[St]
+4.4 +1.2 80 +3  1016.4  -0.5  759  301           
03 23.02.13 060 (СВ) 10 км    10/10 600 м 
[Sc]
+4.5 +1.9 83 +3  1016.5  0.2  760  301  +4.4         
06 23.02.13 070 (В) 3{10}  4000 м  слаб. дождь  10/10 600 м 
[Ns]
+4 +2.5 90 +3  1017.6  0.2  760  302  +3.9         
09 23.02.13 060 (СВ) 3{11}  4000 м  слаб. дождь  10/10 600 м 
[Ns]
+4.2 +2.3 88 +3  1018.4  0.7  761  302           
12 23.02.13 060 (СВ) 4000 м  слаб. дождь  10/10 300 м 
[Frnb]
+4.8 +1.7 80 +4  1018.5  0.2  761  301           
15 23.02.13 060 (СВ) 4{10}  10 км  {дождь}  10/10 600 м 
[Sc]
+3.9 +0.7 80 +2  1019.9  1.3  762  303    +4.8     
18 23.02.13 060 (СВ) 4-11  10 км  {дождь}  10/10 600 м 
[Sc]
+3.5 +0.2 79 +2  1021.2  1.3  763  304           
21 23.02.13 060 (СВ) 3{11}  10 км    10/10 600 м 
[Sc]
+2.8 -0 82 +1  1021.8  0.6  764  305           
00 24.02.13 060 (СВ) 3{10}  4000 м  слаб. дождь  10/10 300 м 
[Frnb]
+2.2 -0.1 85 +1  1022.6  0.8  764  305           
03 24.02.13 040 (СВ) 4000 м  слаб. дождь  10/10 300 м 
[Frnb]
+1.9 +0.3 89 +1  1023.5  0.9  765  306  +1.9       
06 24.02.13 060 (СВ) 4000 м  слаб. дождь  10/10 300 м 
[Sc]
+2.1 +0.3 88 +1  1025.3  1.8  766  306  +1.5         
09 24.02.13 070 (В) 10 км  {дождь}  10/10 300 м 
[Sc]
+3.9 +0.6 79 +3  1026.3  767  305           
12 24.02.13 080 (В) 10 км  {дождь}  10/10 300 м 
[Sc]
+5.7 +1 72 +5  1027.2  0.9  768  303           
15 24.02.13 070 (В) 10 км  в посл. час дождь  10/10 600 м 
[Sc]
+5.1 +1.3 76 +4  1028.6  1.3  769  304    +6     
18 24.02.13 070 (В) 4000 м  слаб. дождь  10/10 300 м 
[Frnb|Ns]
+2.9 +1.3 89 +2  1030.3  1.6  770  307           
21 24.02.13 050 (СВ) 10 км  {дождь}  10/10 600 м 
[Sc]
+2.7 +0.2 84 +2  1030.4  0.2  770  307           
00 25.02.13 060 (СВ) 4000 м  слаб. дождь  10/10 300 м 
[Frnb|Ns]
+1.8 -0.3 86 +3  1031  0.5  770  308           
03 25.02.13 080 (В) 4000 м  слаб. дождь  10/10 600 м 
[Ns]
+1.3 -0.5 88 +1  1031.5  0.4  771  309  +1.3       
06 25.02.13 080 (В) 10 км  {дождь}  10/10 1000 м 
[Sc]
+1.8 -0.4 85 1032.5  1.1  772  309           
09 25.02.13 050 (СВ) 10 км    10/10 1000 м 
[Sc]
+4.4 +0.9 78 +4  1032.3  -0.2  771  306           
12 25.02.13 050 (СВ) 10 км    10/6 1000 м верхняя 
[Cu hum|Ci]
+8.9 +2.5 64 +9  1031.1  -1.2  770  300           
15 25.02.13 040 (СВ) 10 км    10/0 средняя, верхняя 
[Ac trans|Ci]
+7.7 +1.9 67 +9  1030.5  -0.6  770  302    +9.5       
18 25.02.13 060 (СВ) 10 км    10/0 верхняя 
[Ci]
+4.6 +0.5 75 +4  1030.5  770  305           
21 25.02.13 060 (СВ) 10 км    6/0 верхняя 
[Ci fib]
+2.3 -0.5 82 +2  1030  -0.5  770  308           
00 26.02.13 060 (СВ) 10 км    10/0 средняя 
[Ac und]
+2.1 -0.3 84 +1  1029.2  -0.8  769  308           
03 26.02.13 070 (В) 10 км    10/10 300 м 
[St]
+2.6 -0.1 82 +2  1028  -1.2  768  307  +1.5         
06 26.02.13 080 (В) 10 км    10/10 600 м 
[St]
+3.4 +0.2 80 +3  1027.5  -0.5  768  306           
09 26.02.13 050 (СВ) 10 км    10/10 1000 м 
[Sc]
+5.9 +1.2 72 +6  1026.1  -1.4  767  302           
12 26.02.13 060 (СВ) 10 км    10/0 верхняя 
[Ci fib]
+10.9 +1.7 53 +11  1023.9  -2.1  765  296           
15 26.02.13 060 (СВ) 10 км    10/0 верхняя 
[Ci fib]
+8.7 +1.1 59 +8  1022.9  -1.1  764  298    +11.5       
18 26.02.13 070 (В) 10 км    5/0 верхняя 
[Ci fib]
+3.5 -1.2 71 +2  1023.1  0.2  765  304           
21 26.02.13 060 (СВ) 10 км    ясно 
+1.2 -2.1 79 +2  1021.8  -1.4  764  307           
00 27.02.13 040 (СВ) 10 км    ясно 
-0.3 -2.6 84 1020.8  -1  763  308           
06 27.02.13 050 (СВ) 10 км    ясно 
+0.8 -2.6 78 +1  1019.5  -0.2  762  306  -1.5         
09 27.02.13 020 (С) 10 км    4/4 1000 м 
[Sc diur, vesp]
+7 +0 61 +8  1018.5  -0.9  761  299           
12 27.02.13 050 (СВ) 10 км    ясно 
+9.9 +0.5 52 +10  1017  -1.4  760  295           
15 27.02.13 040 (СВ) 10 км    ясно 
+7 -0.7 58 +7  1017.4  0.4  760  299    +10.3       
18 27.02.13 030 (СВ) 10 км    ясно 
+2.4 -2.1 72 +2  1018.6  1.1  761  304           
21 27.02.13 040 (СВ) 10 км    ясно 
+0.6 -2.5 80 +1  1018.9  0.3  761  306           
00 28.02.13 040 (СВ) 10 км    ясно 
-0.7 -2.6 87 1019.2  0.3  762  308           
03 28.02.13 040 (СВ) 10 км    ясно 
-1.2 -2.8 89 -1  1018.7  -0.6  761  308  -1.2         
06 28.02.13 050 (СВ) 10 км    4/0 
[St]
+1.2 -1.7 81 +2  1018.9  0.3  761  306  -1.8         
09 28.02.13 050 (СВ) 10 км    3/3 1000 м 
[Cu hum]
+7.8 -0.4 56 +9  1018.2  -0.6  761  298           
12 28.02.13 020 (С) 10 км    ясно 
+11.2 -4.1 34 +11  1016.2  -2  759  294           
15 28.02.13 020 (С) 10 км    ясно 
+8.8 -5.1 37 +10  1015.7  -0.4  759  297    +11.6       
18 28.02.13 тихо ()   10 км    ясно 
+3.7 -3.8 58 +4  1016.2  0.3  759  302           
21 28.02.13 250 (З) 10 км    8/0 верхняя 
[Cs]
+2.1 -5.4 58 +3  1016.6  0.4  760  304           
00 01.03.13 250 (З) 10 км    6/0 
+0.7 -3.9 71 +1  1016  0.4  759  306           
06 01.03.13 210 (ЮЗ) 10 км    4/0 верхняя 
[Ci fib]
+3.6 -5.2 53 +4  1014.9  -0.3  758  302  -1.4         
09 01.03.13 250 (З) 10 км    4/0 верхняя 
[Ci fib]
+10.4 -1.3 44 +10  1014.1  -0.7  758  294           
12 01.03.13 280 (З) 4{10}  10 км    3/3 1000 м 
[Cu hum]
+12.3 +0.1 43 +12  1012.2  -1.9  756  292           
15 01.03.13 250 (З) 3{10}  10 км    ясно 
+10.3 -2.4 41 +10  1012.1  756  294    +12.6       
18 01.03.13 220 (ЮЗ) 10 км    8/8 1000 м 
[Sc]
+6.8 +0.1 62 +7  1013.2  757  298           
21 01.03.13 230 (ЮЗ) 10 км    10/5 1000 м средняя 
[Sc|Ac und]
+7.1 +0.6 63 +7  1013.6  0.4  757  297           
00 02.03.13 220 (ЮЗ) 10 км    10/3 1000 м средняя, верхняя 
[Sc|Ac trans|Ci fib]
+7 +0.9 65 +6  1013.5  -0.1  757  297           
06 02.03.13 250 (З) 10 км    9/9 1000 м 
[Sc]
+7.5 +0.5 61 +7  1014  0.9  758  297  +5.4         
09 02.03.13 210 (ЮЗ) 10 км    10/6 1000 м верхняя 
[Sc|Ci fib]
+9.8 -1.4 46 +8  1013.9  758  295           
12 02.03.13 220 (ЮЗ) 6-14{14}  10 км    10/8 1000 м верхняя 
[Sc|Ci fib]
+10.7 -2.9 38 +9  1013.1  -0.8  757  294           
15 02.03.13 210 (ЮЗ) 4-11{13}  10 км    6/3 1000 м верхняя 
[Sc|Ci fib]
+9 -0.5 51 +8  1012.8  -0.4  757  295    +11.1       
18 02.03.13 210 (ЮЗ) 3{11}  10 км    10/0 верхняя 
[Ci fib]
+7.7 +1.2 63 +7  1012.1  -0.7  756  296           
21 02.03.13 220 (ЮЗ) 5-12  10 км    10/10 1000 м 
[Sc]
+9 +1.1 58 +8  1011.2  -0.9  756  295           
00 03.03.13 260 (З) 4000 м  слаб. ливневой снег{дождь}  10/10 600 м кучево-дожд. 
[Cb cap]
+0.2 -0.5 95 -1  1015.2  3.9  759  305           
03 03.03.13 230 (ЮЗ) 10 км  {ливн. осадки, дождь} [диам. отлож. мокр. снега 30 мм]  10/10 600 м кучево-дожд. 
[Cb cap]
+0.7 +0 95 +1  1016.6  1.4  760  305  +0.2    14  равномерный
мокрый или
старый снег
100% 
06 03.03.13 220 (ЮЗ) 10 км  {ливн. осадки}  9/3 600 м средняя 
[Sc|Ac trans]
+2.2 +0 85 +2  1019  2.4  761  304           
09 03.03.13 250 (З) 10 км    3/3 600 м 
[Cu hum]
+5.8 +0.2 67 +6  1019.3  0.4  762  301           
12 03.03.13 280 (З) 10 км    6/3 1000 м средняя 
[Sc|Ac trans]
+7.8 -2.7 47 +7  1017.9  -1.4  761  298           
15 03.03.13 270 (З) 10 км    3/1 1000 м средняя 
[Sc|Ac trans]
+6.2 -4.2 47 +6  1017  -0.9  760  300    +8       
18 03.03.13 260 (З) 10 км    ясно 
+4 -2.3 63 +5  1016  -1.1  759  302           
21 03.03.13 240 (ЮЗ) 10 км    ясно 
+2.9 -1.9 71 +4  1015  -1  758  303           
00 04.03.13 200 (Ю) 10 км    8/0 средняя, верхняя 
[Ac trans|Ci fib]
+2.2 -2.5 71 +3  1014.3  -0.7  758  303           
03 04.03.13 тихо ()   10 км    10/0 верхняя 
[Ci fib]
+0 -2.4 84 1013.2  -1  757  305  -0         
06 04.03.13 190 (Ю) 10 км    4/0 средняя, верхняя 
[Ac trans|Ci]
+4.4 -0.6 70 +5  1013.2  757  300           
09 04.03.13 300 (СЗ) 10 км    8/6 1000 м верхняя 
[Cu hum|Ci fib]
+6.6 -1.4 57 +6  1012.1  -1.1  756  298           
12 04.03.13 290 (З) 10 км    8/8 1000 м 
[Cu hum]
+9.3 -3.6 40 +9  1010.9  -1.2  755  295           
15 04.03.13 300 (СЗ) 10 км    6/3 1000 м верхняя 
[Sc|Ci fib]
+6 -4.9 46 +5  1012.7  1.8  757  299    +9.7       
18 04.03.13 270 (З) 10 км    10/10 600 м 
[Sc]
+4 -4.4 54 +4  1014.5  1.8  758  302           
21 04.03.13 270 (З) 10 км    10/10 600 м 
[Sc]
+4 -4.4 54 +4  1014.5  1.8  758  302           
00 05.03.13 280 (З) 10 км    ясно 
+0.5 -4.7 68 1017.8  1.4  761  306           
03 05.03.13 290 (З) 10 км    10/3 1000 м средняя 
[Sc|Ac und]
+0.5 -4.1 71 -1  1019.8  762  307  -0.1         
06 05.03.13 290 (З) 4000 м  слаб. ливневой дождь  10/10 200 м кучево-дожд. 
[Cb cap]
-0.6 -2.1 90 -2  1022.4  2.6  764  309  -0.6         
09 05.03.13 300 (СЗ) 3{10}  4000 м  слаб. ливневой снег  9/9 600 м кучево-дожд. 
[Cb cap]
-0.1 -3.1 80 -2  1024.1  1.7  765  309           
12 05.03.13 320 (СЗ) 10 км  в посл. час ливневой снег  8/8 300 м кучево-дожд. 
[Cb cap]
+1.2 -4.9 64 1025  0.9  766  308           
15 05.03.13 300 (СЗ) 10 км  слаб. ливневой снег  8/5 600 м кучево-дожд., средняя 
[Cb cap|Ac trans]
-0.5 -4.6 74 -2  1027.3  2.3  768  310    +1.6     
Время (UTC), дата Ветер
(°,м/с) 
Видим.   Явления Облачность Т
(°С)
Тd
(°С)
f(%) Тe
(°С)
Pmin
(гПа)
dP
(гПа)
Po
(мм)
O2
(г/м3)
Тmin Tmax R s Состояние
почвы